Chalkyitsik, AK

6:18 AM AKDT on August 29, 2016 (GMT -0800)
Fort Yukon

Weather History for PFYU - January, 2013

Change the Weather History Date:

Wednesday, January 30, 2013

  Actual Average Record
Temperature  
Mean Temperature -18 °F -  
Max Temperature -9 °F -5 °F 17 °F (2016)
Min Temperature -27 °F -18 °F -61 °F (2012)
Degree Days  
Heating Degree Days 83    
Moisture  
Dew Point -22 °F    
Average Humidity 74    
Maximum Humidity 100    
Minimum Humidity 55    
Precipitation  
Precipitation 0.00 in - - ()
Sea Level Pressure  
Sea Level Pressure 30.01 in    
Wind  
Wind Speed 2 mph (NE)    
Max Wind Speed 8 mph    
Max Gust Speed -    
Visibility 8 miles    
Events      
Averages and records for this station are not official NWS values.
T = Trace of Precipitation, MM = Missing Value Source: NWS Daily Summary

Daily Weather History Graph

Daily Weather History Graph

Search for Another Location

Airport or City:

Trip Planner

Search our weather history database for the weather conditions in past years. The results will help you decide how hot, cold, wet, or windy it might be!

Date:

Astronomy

Jan. 30, 2013 Rise Set
Actual Time 9:48 AM AKST 4:01 PM AKST
Civil Twilight 8:41 AM AKST 5:08 PM AKST
Nautical Twilight 7:35 AM AKST 6:14 PM AKST
Astronomical Twilight 6:34 AM AKST 7:15 PM AKST
Moon 10:31 PM AKST (1/30) 9:15 AM AKST (1/30)
Length of Visible Light 8h 26m
Length of Day
6h 13m
Waning Gibbous, 86% of the Moon is Illuminated
Jan 30
Waning Gibbous
Feb 3
Last Quarter
Feb 9
New
Feb 17
First Quarter
Feb 25
Full

Hourly Weather History & Observations

Time (AKST) Temp. Windchill Dew Point Humidity Pressure Visibility Wind Dir Wind Speed Gust Speed Precip Events Conditions
12:16 AM -32.8 °F - - N/A% 30.06 in 10.0 mi Calm Calm - N/A   Clear
12:36 AM -31.0 °F - - N/A% 30.06 in 10.0 mi Calm Calm - N/A   Mostly Cloudy
12:56 AM -29.2 °F - - N/A% 30.06 in 10.0 mi Calm Calm - N/A   Mostly Cloudy
1:16 AM -27.4 °F - - N/A% 30.07 in 10.0 mi Calm Calm - N/A   Partly Cloudy
1:36 AM -25.6 °F - - N/A% 30.07 in 10.0 mi Calm Calm - N/A   Clear
1:56 AM -25.6 °F - - N/A% 30.07 in 10.0 mi Calm Calm - N/A   Clear
2:16 AM -25.6 °F - -29.2 °F 83% 30.07 in 10.0 mi Calm Calm - N/A   Mostly Cloudy
2:36 AM -23.8 °F - -25.6 °F 91% 30.07 in 10.0 mi Calm Calm - N/A   Mostly Cloudy
2:56 AM -23.8 °F - - N/A% 30.08 in 10.0 mi Calm Calm - N/A   Mostly Cloudy
3:16 AM -23.8 °F - - N/A% 30.08 in 10.0 mi Calm Calm - N/A   Clear
3:36 AM -23.8 °F - -29.2 °F 76% 30.08 in 10.0 mi Calm Calm - N/A   Clear
3:56 AM -23.8 °F - - N/A% 30.08 in 10.0 mi Calm Calm - N/A   Clear
4:16 AM -23.8 °F - - N/A% 30.07 in 10.0 mi Calm Calm - N/A   Clear
4:36 AM -23.8 °F - - N/A% 30.08 in 10.0 mi Calm Calm - N/A   Clear
4:56 AM -23.8 °F - -29.2 °F 76% 30.08 in 7.0 mi Calm Calm - N/A   Scattered Clouds
5:16 AM -23.8 °F - -29.2 °F 76% 30.08 in 8.0 mi Calm Calm - N/A   Overcast
5:36 AM -23.8 °F - -27.4 °F 83% 30.08 in 10.0 mi Calm Calm - N/A   Overcast
5:56 AM -23.8 °F - -29.2 °F 76% 30.08 in 10.0 mi Calm Calm - N/A   Overcast
6:16 AM -23.8 °F - -27.4 °F 83% 30.07 in 10.0 mi Calm Calm - N/A   Scattered Clouds
6:36 AM -22.0 °F - -27.4 °F 76% 30.08 in 10.0 mi Calm Calm - N/A   Mostly Cloudy
6:56 AM -22.0 °F -33.0 °F -27.4 °F 76% 30.07 in 10.0 mi NE 3.5 mph - N/A   Mostly Cloudy
7:16 AM -22.0 °F -33.0 °F -29.2 °F 69% 30.06 in 10.0 mi NE 3.5 mph - N/A   Scattered Clouds
7:36 AM -23.8 °F -35.0 °F -29.2 °F 76% 30.06 in 10.0 mi NE 3.5 mph - N/A   Partly Cloudy
7:56 AM -23.8 °F - - N/A% 30.06 in 10.0 mi Calm Calm - N/A   Clear
8:16 AM -23.8 °F - - N/A% 30.06 in 10.0 mi Calm Calm - N/A   Clear
8:36 AM -23.8 °F - - N/A% 30.06 in 10.0 mi Calm Calm - N/A   Partly Cloudy
8:56 AM -25.6 °F - - N/A% 30.06 in 10.0 mi Calm Calm - N/A   Mostly Cloudy
9:16 AM -23.8 °F - -29.2 °F 76% 30.05 in 10.0 mi Calm Calm - N/A   Overcast
9:36 AM -23.8 °F - -23.8 °F 100% 30.06 in 10.0 mi Calm Calm - N/A   Overcast
9:56 AM -22.0 °F - - N/A% 30.06 in 10.0 mi Calm Calm - N/A   Overcast
10:16 AM -22.0 °F - -27.4 °F 76% 30.06 in 9.0 mi Calm Calm - N/A   Overcast
10:36 AM -20.2 °F -30.9 °F -25.6 °F 76% 30.05 in 9.0 mi NE 3.5 mph - N/A   Overcast
10:56 AM -20.2 °F -33.5 °F -27.4 °F 69% 30.04 in 10.0 mi NE 4.6 mph - N/A   Overcast
11:16 AM -20.2 °F -30.9 °F -25.6 °F 76% 30.05 in 10.0 mi ENE 3.5 mph - N/A   Overcast
11:36 AM -20.2 °F -30.9 °F -25.6 °F 76% 30.05 in 10.0 mi NNE 3.5 mph - N/A   Overcast
11:56 AM -18.4 °F - -25.6 °F 70% 30.05 in 10.0 mi Calm Calm - N/A   Overcast
12:16 PM -18.4 °F - -25.6 °F 70% 30.05 in 10.0 mi Calm Calm - N/A   Overcast
12:36 PM -18.4 °F - -25.6 °F 70% 30.04 in 10.0 mi Calm Calm - N/A   Overcast
12:56 PM -18.4 °F -31.4 °F -23.8 °F 76% 30.03 in 10.0 mi ENE 4.6 mph - N/A   Overcast
1:16 PM -18.4 °F -31.4 °F -23.8 °F 76% 30.03 in 8.0 mi NE 4.6 mph - N/A   Overcast
1:36 PM -16.6 °F -26.8 °F -25.6 °F 64% 30.02 in 10.0 mi NE 3.5 mph - N/A   Overcast
1:56 PM -16.6 °F -26.8 °F -22.0 °F 76% 30.03 in 10.0 mi ENE 3.5 mph - N/A   Overcast
2:16 PM -16.6 °F -29.3 °F -23.8 °F 70% 30.02 in 10.0 mi NE 4.6 mph - N/A   Overcast
2:36 PM -16.6 °F -29.3 °F -23.8 °F 70% 30.01 in 10.0 mi NE 4.6 mph - N/A   Overcast
2:56 PM -16.6 °F -29.3 °F -22.0 °F 76% 30.01 in 10.0 mi NE 4.6 mph - N/A   Overcast
3:16 PM -16.6 °F -31.3 °F -23.8 °F 70% 30.00 in 10.0 mi NNE 5.8 mph - N/A   Overcast
3:36 PM -14.8 °F -24.8 °F -20.2 °F 77% 29.99 in 10.0 mi ENE 3.5 mph - N/A   Overcast
3:56 PM -14.8 °F -29.1 °F -22.0 °F 70% 29.99 in 10.0 mi NE 5.8 mph - N/A   Overcast
4:16 PM -14.8 °F -29.1 °F -23.8 °F 64% 29.98 in 10.0 mi NE 5.8 mph - N/A   Overcast
4:36 PM -14.8 °F -24.8 °F -20.2 °F 77% 29.98 in 10.0 mi ENE 3.5 mph - N/A   Overcast
4:56 PM -14.8 °F -30.8 °F -22.0 °F 70% 29.97 in 10.0 mi NE 6.9 mph - N/A   Overcast
5:16 PM -13.0 °F -25.1 °F -20.2 °F 70% 29.97 in 9.0 mi ENE 4.6 mph - N/A   Overcast
5:36 PM -13.0 °F -25.1 °F -20.2 °F 70% 29.97 in 3.0 mi NE 4.6 mph - N/A   Overcast
5:56 PM -13.0 °F -25.1 °F -20.2 °F 70% 29.96 in 3.0 mi NNE 4.6 mph - N/A   Overcast
6:16 PM -11.2 °F -26.4 °F -16.6 °F 77% 29.94 in 9.0 mi NE 6.9 mph - N/A   Overcast
6:36 PM -11.2 °F -26.4 °F -18.4 °F 70% 29.94 in 3.0 mi NE 6.9 mph - N/A   Overcast
6:56 PM -11.2 °F -23.0 °F -18.4 °F 70% 29.94 in 3.0 mi NE 4.6 mph - N/A   Overcast
7:16 PM -11.2 °F -20.6 °F -18.4 °F 70% 29.93 in 2.5 mi NE 3.5 mph - N/A   Overcast
7:36 PM -11.2 °F -23.0 °F -16.6 °F 77% 29.93 in 3.0 mi NE 4.6 mph - N/A   Overcast
7:56 PM -11.2 °F -23.0 °F -18.4 °F 70% 29.92 in 2.5 mi NE 4.6 mph - N/A   Overcast
8:36 PM -9.4 °F -22.7 °F -14.8 °F 77% 29.91 in 2.0 mi NE 5.8 mph - N/A   Overcast
8:56 PM -9.4 °F -25.6 °F -16.6 °F 71% 29.90 in 2.0 mi NE 8.1 mph - N/A   Overcast
9:16 PM -9.4 °F -25.6 °F -16.6 °F 71% 29.89 in 2.0 mi NE 8.1 mph - N/A   Overcast
9:36 PM -9.4 °F -22.7 °F -14.8 °F 77% 29.89 in 2.5 mi NE 5.8 mph - N/A   Overcast
9:56 PM -9.4 °F -20.9 °F -16.6 °F 71% 29.88 in 1.8 mi NE 4.6 mph - N/A   Overcast
10:16 PM -9.4 °F -18.6 °F -16.6 °F 71% 29.89 in 1.8 mi ENE 3.5 mph - N/A   Overcast
10:36 PM -9.4 °F -18.6 °F -14.8 °F 77% 29.88 in 1.5 mi NE 3.5 mph - N/A   Overcast
10:56 PM -9.4 °F -22.7 °F -14.8 °F 77% 29.87 in 1.5 mi NE 5.8 mph - N/A   Overcast
11:16 PM -9.4 °F -18.6 °F -16.6 °F 71% 29.87 in 1.5 mi NE 3.5 mph - N/A   Overcast
11:36 PM -9.4 °F -18.6 °F -14.8 °F 77% 29.87 in 1.8 mi NE 3.5 mph - N/A   Overcast
11:56 PM -9.4 °F - -16.6 °F 71% 29.86 in 2.0 mi Calm Calm - N/A   Overcast